Location: *
(41.7492°S, 135.4150°W)
Time: 21:55:21
(UTC+00:00)

AO-73 - Visible Passes

Search period start: 28 June 2022 00:00
Search period end: 08 July 2022 00:00
Orbit: 579 x 658 km, 97.6° (Epoch: 28 June)

Date Brightness Start Highest point End Pass type
(mag) Time Alt. Az. Time Alt. Az. Time Alt. Az.
28 Jun ? 02:21:49 10° SSW 02:24:27 16° WSW 02:27:03 10° WNW visible
29 Jun ? 02:39:53 10° SW 02:40:59 11° WSW 02:42:05 10° WSW visible
03 Jul ? 02:09:03 10° SSW 02:12:12 21° WSW 02:15:19 10° WNW visible
04 Jul ? 02:26:32 10° SSW 02:28:46 14° WSW 02:30:58 10° W visible
